QPF
0.00 0.00 0.00 0.00 0.00 0.00 0.00 0.00 0.00 0.00 0.00 0.00 0.00 0.00 0.00 0.00 0.00 0.00 0.00 0.00 0.00 0.00 0.00 0.00 0.00 0.00 0.00 0.01 0.00 0.00 0.00 0.00 0.00 0.01 0.01 0.02 0.02 0.03
0.00 0.00 0.00 0.00 0.00 0.00 0.00 0.00 0.00 0.00 0.00 0.00 0.00 0.00 0.00 0.00 0.00 0.00 0.00 0.00 0.00 0.00 0.00 0.00 0.00 0.00 0.00 0.00 0.01 0.01 0.01 0.01 0.00 0.00 0.00 0.00 0.00 0.01
0.00 0.00 0.00 0.00 0.00 0.00 0.00 0.00 0.00 0.00 0.00 0.00 0.00 0.00 0.00 0.00 0.00 0.00 0.00 0.00 0.00 0.00 0.00 0.00 0.00 0.00 0.00 0.00 0.00 0.00 0.00 0.01 0.00 0.00 0.00 0.00 0.00 0.00
0.00 0.00 0.00 0.00 0.00 0.00 0.00 0.00 0.00 0.00 0.00 0.00 0.00 0.00 0.00 0.00 0.00 0.00 0.00 0.00 0.00 0.00 0.00 0.00 0.00 0.00 0.00 0.00 0.00 0.00 0.00 0.00 0.00 0.00 0.00 0.00 0.00 0.00
0.01 0.01 0.00 0.00 0.00 0.00 0.00 0.00 0.00 0.00 0.00 0.00 0.00 0.00 0.00 0.00 0.00 0.00 0.00 0.00 0.00 0.00 0.00 0.00 0.00 0.00 0.00 0.00 0.00 0.00 0.00 0.00 0.00 0.00 0.00 0.00 0.00 0.00
0.02 0.01 0.01 0.00 0.00 0.00 0.00 0.00 0.00 0.00 0.00 0.00 0.00 0.00 0.00 0.00 0.00 0.00 0.00 0.00 0.00 0.00 0.00 0.00 0.00 0.00 0.00 0.00 0.00 0.00 0.00 0.00 0.00 0.00 0.00 0.00 0.00 0.00
0.02 0.02 0.02 0.02 0.02 0.01 0.01 0.01 0.01 0.01 0.00 0.00 0.00 0.00 0.00 0.00 0.00 0.00 0.00 0.00 0.00 0.00 0.00 0.00 0.00 0.00 0.00 0.00 0.00 0.00 0.00 0.00 0.00 0.00 0.00 0.00 0.00 0.00
0.03 0.03 0.03 0.03 0.03 0.03 0.02 0.02 0.02 0.01 0.01 0.01 0.01 0.00 0.00 0.00 0.00 0.00 0.00 0.00 0.00 0.00 0.00 0.00 0.00 0.00 0.00 0.00 0.00 0.00 0.00 0.00 0.00 0.00 0.00 0.00 0.00 0.00
0.06 0.05 0.05 0.05 0.04 0.04 0.03 0.03 0.03 0.02 0.02 0.02 0.01 0.01 0.01 0.01 0.01 0.00 0.00 0.00 0.00 0.00 0.00 0.00 0.00 0.00 0.00 0.00 0.00 0.00 0.00 0.00 0.00 0.00 0.00 0.00 0.00 0.00
0.07 0.07 0.06 0.05 0.05 0.04 0.03 0.03 0.03 0.03 0.03 0.03 0.02 0.01 0.01 0.01 0.01 0.01 0.00 0.00 0.00 0.00 0.00 0.00 0.00 0.00 0.00 0.00 0.00 0.00 0.00 0.00 0.00 0.00 0.00 0.00 0.00 0.00
0.08 0.07 0.06 0.06 0.05 0.04 0.02 0.02 0.01 0.01 0.02 0.02 0.01 0.01 0.01 0.01 0.01 0.01 0.01 0.01 0.01 0.00 0.00 0.00 0.00 0.00 0.00 0.00 0.00 0.00 0.00 0.00 0.00 0.00 0.00 0.00 0.00 0.00
0.08 0.07 0.06 0.06 0.05 0.04 0.02 0.01 0.01 0.01 0.01 0.01 0.01 0.01 0.01 0.01 0.01 0.02 0.02 0.02 0.01 0.01 0.00 0.00 0.00 0.00 0.00 0.00 0.00 0.00 0.00 0.00 0.00 0.00 0.00 0.00 0.00 0.00
0.07 0.07 0.06 0.06 0.05 0.04 0.03 0.02 0.01 0.01 0.01 0.01 0.01 0.01 0.01 0.01 0.01 0.01 0.01 0.01 0.01 0.01 0.01 0.01 0.01 0.01 0.01 0.00 0.00 0.00 0.00 0.00 0.00 0.00 0.00 0.00 0.00 0.00
0.02 0.03 0.03 0.03 0.03 0.03 0.02 0.02 0.01 0.01 0.01 0.01 0.01 0.01 0.01 0.01 0.00 0.00 0.00 0.01 0.01 0.01 0.01 0.01 0.01 0.01 0.01 0.01 0.01 0.00 0.00 0.00 0.00 0.00 0.00 0.00 0.00 0.00
0.00 0.00 0.01 0.01 0.01 0.01 0.00 0.00 0.00 0.00 0.00 0.01 0.01 0.00 0.00 0.00 0.00 0.00 0.00 0.00 0.00 0.00 0.01 0.01 0.01 0.02 0.02 0.02 0.01 0.01 0.00 0.00 0.00 0.00 0.00 0.00 0.00 0.00
0.00 0.00 0.00 0.00 0.00 0.00 0.00 0.00 0.00 0.00 0.00 0.00 0.00 0.00 0.00 0.00 0.00 0.00 0.00 0.00 0.00 0.00 0.00 0.01 0.01 0.02 0.02 0.02 0.02 0.01 0.01 0.00 0.00 0.00 0.00 0.00 0.00 0.00
0.00 0.00 0.00 0.00 0.00 0.00 0.00 0.00 0.00 0.00 0.00 0.00 0.00 0.00 0.00 0.00 0.00 0.00 0.00 0.00 0.00 0.00 0.00 0.00 0.01 0.02 0.02 0.03 0.02 0.01 0.01 0.01 0.00 0.01 0.01 0.01 0.01 0.00
0.00 0.00 0.00 0.00 0.00 0.00 0.00 0.00 0.00 0.00 0.00 0.00 0.00 0.00 0.00 0.00 0.00 0.00 0.00 0.00 0.00 0.01 0.00 0.00 0.01 0.01 0.02 0.02 0.02 0.02 0.01 0.01 0.01 0.01 0.02 0.02 0.01 0.01
0.00 0.00 0.00 0.00 0.00 0.00 0.00 0.00 0.00 0.00 0.00 0.00 0.00 0.00 0.00 0.00 0.00 0.00 0.00 0.00 0.00 0.00 0.00 0.01 0.01 0.02 0.03 0.02 0.01 0.02 0.03 0.02 0.02 0.02 0.02 0.03 0.02 0.01
0.00 0.00 0.00 0.00 0.00 0.00 0.00 0.00 0.00 0.00 0.00 0.00 0.00 0.00 0.01 0.01 0.01 0.01 0.01 0.01 0.01 0.01 0.01 0.01 0.01 0.02 0.03 0.03 0.03 0.02 0.03 0.04 0.04 0.04 0.03 0.03 0.03 0.02
0.00 0.00 0.00 0.00 0.00 0.00 0.00 0.00 0.00 0.00 0.00 0.00 0.01 0.01 0.01 0.01 0.02 0.02 0.02 0.02 0.02 0.02 0.02 0.01 0.01 0.01 0.03 0.04 0.04 0.03 0.03 0.05 0.06 0.07 0.06 0.06 0.05 0.04
0.00 0.00 0.01 0.00 0.00 0.00 0.01 0.00 0.00 0.00 0.00 0.00 0.01 0.01 0.01 0.02 0.02 0.03 0.03 0.03 0.03 0.03 0.02 0.01 0.01 0.02 0.03 0.04 0.04 0.04 0.04 0.05 0.07 0.08 0.08 0.07 0.07 0.05
0.00 0.01 0.01 0.01 0.00 0.00 0.00 0.01 0.00 0.00 0.00 0.01 0.01 0.01 0.01 0.02 0.02 0.03 0.04 0.04 0.04 0.03 0.03 0.03 0.03 0.05 0.06 0.06 0.06 0.07 0.07 0.07 0.07 0.08 0.08 0.09 0.08 0.07
MSLP
1020.07 1020.29 1020.55 1020.81 1021.03 1021.20 1021.29 1021.30 1021.25 1021.15 1021.03 1020.90 1020.77 1020.66 1020.55 1020.45 1020.37 1020.29 1020.23 1020.19 1020.18 1020.21 1020.26 1020.32 1020.37 1020.39 1020.37 1020.30 1020.17 1020.00 1019.82 1019.65 1019.52 1019.44 1019.42 1019.47 1019.55 1019.64
1019.86 1020.06 1020.28 1020.51 1020.70 1020.85 1020.93 1020.96 1020.93 1020.87 1020.78 1020.69 1020.60 1020.50 1020.40 1020.30 1020.20 1020.09 1020.00 1019.92 1019.87 1019.86 1019.88 1019.92 1019.97 1019.99 1019.98 1019.92 1019.82 1019.67 1019.51 1019.35 1019.22 1019.14 1019.10 1019.12 1019.17 1019.23
1019.50 1019.68 1019.88 1020.08 1020.25 1020.39 1020.47 1020.51 1020.51 1020.48 1020.44 1020.38 1020.33 1020.26 1020.18 1020.08 1019.96 1019.83 1019.70 1019.58 1019.48 1019.42 1019.40 1019.40 1019.43 1019.45 1019.45 1019.42 1019.35 1019.25 1019.12 1019.00 1018.90 1018.83 1018.80 1018.81 1018.83 1018.86
1019.00 1019.18 1019.37 1019.56 1019.72 1019.85 1019.94 1019.99 1020.01 1020.01 1020.01 1019.99 1019.97 1019.93 1019.87 1019.78 1019.66 1019.51 1019.34 1019.17 1019.02 1018.91 1018.83 1018.80 1018.79 1018.80 1018.81 1018.80 1018.76 1018.70 1018.63 1018.55 1018.49 1018.45 1018.43 1018.44 1018.46 1018.47
1018.42 1018.61 1018.81 1019.00 1019.16 1019.29 1019.38 1019.45 1019.48 1019.50 1019.52 1019.53 1019.54 1019.53 1019.49 1019.40 1019.28 1019.12 1018.93 1018.72 1018.53 1018.36 1018.23 1018.14 1018.10 1018.08 1018.08 1018.07 1018.06 1018.04 1018.01 1017.97 1017.94 1017.93 1017.93 1017.94 1017.96 1017.97
1017.84 1018.05 1018.27 1018.47 1018.65 1018.78 1018.87 1018.93 1018.97 1019.00 1019.02 1019.04 1019.05 1019.05 1019.02 1018.95 1018.84 1018.67 1018.47 1018.24 1018.01 1017.80 1017.62 1017.48 1017.39 1017.33 1017.30 1017.29 1017.28 1017.26 1017.25 1017.24 1017.23 1017.23 1017.24 1017.26 1017.29 1017.30
1017.34 1017.58 1017.83 1018.05 1018.23 1018.37 1018.46 1018.50 1018.52 1018.53 1018.53 1018.53 1018.54 1018.53 1018.51 1018.45 1018.34 1018.18 1017.99 1017.75 1017.51 1017.26 1017.04 1016.85 1016.71 1016.60 1016.52 1016.47 1016.43 1016.40 1016.38 1016.36 1016.35 1016.36 1016.37 1016.38 1016.41 1016.42
1017.01 1017.28 1017.55 1017.79 1017.98 1018.11 1018.18 1018.19 1018.17 1018.13 1018.09 1018.05 1018.03 1018.00 1017.97 1017.92 1017.82 1017.69 1017.50 1017.28 1017.03 1016.77 1016.51 1016.28 1016.08 1015.91 1015.77 1015.66 1015.57 1015.50 1015.44 1015.39 1015.36 1015.34 1015.33 1015.34 1015.35 1015.37
1016.90 1017.19 1017.47 1017.72 1017.90 1018.01 1018.05 1018.01 1017.94 1017.84 1017.73 1017.64 1017.57 1017.51 1017.46 1017.40 1017.32 1017.20 1017.04 1016.83 1016.59 1016.32 1016.05 1015.77 1015.52 1015.28 1015.08 1014.90 1014.74 1014.60 1014.49 1014.39 1014.31 1014.24 1014.20 1014.18 1014.17 1014.19
1017.03 1017.32 1017.60 1017.83 1017.99 1018.06 1018.05 1017.96 1017.82 1017.65 1017.47 1017.31 1017.18 1017.08 1017.00 1016.94 1016.86 1016.76 1016.62 1016.43 1016.20 1015.93 1015.63 1015.33 1015.02 1014.73 1014.45 1014.19 1013.96 1013.75 1013.57 1013.40 1013.26 1013.14 1013.05 1012.99 1012.96 1012.95
1017.36 1017.62 1017.86 1018.06 1018.18 1018.21 1018.14 1017.99 1017.78 1017.53 1017.29 1017.06 1016.88 1016.73 1016.63 1016.55 1016.47 1016.38 1016.25 1016.08 1015.85 1015.57 1015.26 1014.92 1014.57 1014.22 1013.88 1013.56 1013.25 1012.97 1012.71 1012.48 1012.27 1012.09 1011.95 1011.83 1011.76 1011.72
1017.79 1018.00 1018.19 1018.33 1018.39 1018.36 1018.24 1018.03 1017.76 1017.46 1017.16 1016.88 1016.65 1016.47 1016.34 1016.24 1016.15 1016.05 1015.93 1015.75 1015.52 1015.23 1014.90 1014.53 1014.14 1013.74 1013.34 1012.96 1012.60 1012.25 1011.93 1011.63 1011.36 1011.12 1010.92 1010.75 1010.61 1010.53
1018.25 1018.37 1018.48 1018.55 1018.54 1018.45 1018.27 1018.01 1017.70 1017.36 1017.03 1016.73 1016.47 1016.26 1016.11 1015.99 1015.89 1015.77 1015.63 1015.44 1015.18 1014.88 1014.52 1014.12 1013.69 1013.25 1012.81 1012.39 1011.98 1011.58 1011.21 1010.86 1010.53 1010.22 1009.95 1009.72 1009.52 1009.38
1018.63 1018.65 1018.67 1018.64 1018.56 1018.41 1018.18 1017.89 1017.56 1017.21 1016.87 1016.56 1016.30 1016.09 1015.92 1015.78 1015.65 1015.51 1015.33 1015.11 1014.82 1014.48 1014.09 1013.66 1013.20 1012.73 1012.27 1011.81 1011.36 1010.93 1010.52 1010.11 1009.73 1009.36 1009.02 1008.72 1008.45 1008.24
1018.87 1018.79 1018.70 1018.58 1018.42 1018.20 1017.94 1017.63 1017.30 1016.97 1016.65 1016.36 1016.11 1015.90 1015.73 1015.58 1015.42 1015.25 1015.03 1014.76 1014.42 1014.04 1013.61 1013.14 1012.66 1012.17 1011.68 1011.20 1010.73 1010.27 1009.82 1009.37 1008.93 1008.50 1008.09 1007.70 1007.36 1007.07
1018.97 1018.78 1018.58 1018.37 1018.13 1017.87 1017.58 1017.27 1016.96 1016.65 1016.37 1016.12 1015.90 1015.72 1015.55 1015.38 1015.19 1014.97 1014.70 1014.38 1013.99 1013.56 1013.09 1012.59 1012.08 1011.57 1011.06 1010.57 1010.08 1009.59 1009.10 1008.61 1008.10 1007.60 1007.11 1006.64 1006.21 1005.84
1018.95 1018.65 1018.36 1018.07 1017.77 1017.46 1017.16 1016.86 1016.58 1016.32 1016.08 1015.88 1015.70 1015.53 1015.37 1015.19 1014.97 1014.70 1014.38 1013.99 1013.55 1013.06 1012.55 1012.02 1011.49 1010.96 1010.44 1009.93 1009.42 1008.90 1008.37 1007.82 1007.25 1006.67 1006.09 1005.53 1005.01 1004.57
1018.88 1018.50 1018.13 1017.77 1017.42 1017.09 1016.78 1016.49 1016.24 1016.03 1015.84 1015.68 1015.54 1015.39 1015.23 1015.02 1014.77 1014.45 1014.07 1013.63 1013.13 1012.59 1012.04 1011.47 1010.92 1010.37 1009.84 1009.31 1008.77 1008.22 1007.64 1007.02 1006.38 1005.71 1005.04 1004.40 1003.80 1003.28
1018.84 1018.41 1017.98 1017.57 1017.18 1016.83 1016.52 1016.26 1016.04 1015.86 1015.71 1015.59 1015.46 1015.33 1015.15 1014.92 1014.62 1014.25 1013.81 1013.31 1012.76 1012.17 1011.58 1010.98 1010.40 1009.84 1009.28 1008.73 1008.16 1007.57 1006.93 1006.25 1005.53 1004.78 1004.02 1003.29 1002.62 1002.03
1018.90 1018.43 1017.97 1017.53 1017.13 1016.77 1016.46 1016.21 1016.01 1015.85 1015.73 1015.62 1015.50 1015.35 1015.15 1014.88 1014.53 1014.11 1013.61 1013.05 1012.44 1011.81 1011.18 1010.55 1009.95 1009.36 1008.78 1008.20 1007.59 1006.95 1006.26 1005.51 1004.72 1003.89 1003.06 1002.26 1001.52 1000.89
1019.09 1018.60 1018.12 1017.67 1017.26 1016.90 1016.59 1016.35 1016.16 1016.01 1015.89 1015.77 1015.63 1015.45 1015.21 1014.89 1014.48 1014.00 1013.44 1012.82 1012.17 1011.49 1010.83 1010.17 1009.54 1008.92 1008.31 1007.70 1007.05 1006.36 1005.61 1004.81 1003.96 1003.07 1002.18 1001.33 1000.55 999.88
1019.37 1018.89 1018.41 1017.96 1017.55 1017.18 1016.88 1016.63 1016.43 1016.27 1016.13 1015.98 1015.80 1015.57 1015.28 1014.90 1014.43 1013.88 1013.27 1012.60 1011.89 1011.18 1010.48 1009.79 1009.13 1008.48 1007.84 1007.19 1006.50 1005.77 1004.97 1004.13 1003.23 1002.30 1001.38 1000.50 999.69 999.01
1019.70 1019.22 1018.75 1018.31 1017.90 1017.54 1017.22 1016.96 1016.74 1016.55 1016.37 1016.17 1015.94 1015.65 1015.29 1014.84 1014.31 1013.71 1013.03 1012.32 1011.57 1010.82 1010.08 1009.36 1008.67 1007.99 1007.31 1006.62 1005.89 1005.12 1004.30 1003.42 1002.50 1001.56 1000.63 999.75 998.95 998.27
Thickness
5698 5697 5697 5696 5696 5695 5694 5693 5689 5686 5687 5690 5692 5694 5694 5693 5693 5691 5691 5690 5688 5687 5687 5686 5685 5684 5684 5683 5683 5682 5682 5682 5682 5682 5681 5681 5681 5681
5694 5693 5692 5692 5691 5691 5690 5688 5687 5685 5683 5685 5686 5688 5689 5689 5689 5688 5687 5687 5686 5685 5684 5683 5683 5682 5681 5681 5680 5680 5680 5680 5679 5679 5679 5678 5678 5678
5691 5690 5689 5688 5687 5686 5685 5684 5682 5681 5679 5681 5681 5683 5683 5684 5684 5683 5683 5682 5682 5682 5682 5681 5681 5680 5679 5679 5678 5678 5677 5677 5677 5676 5676 5676 5675 5675
5688 5687 5686 5685 5683 5682 5680 5679 5678 5677 5676 5676 5677 5677 5678 5678 5678 5678 5678 5678 5678 5679 5679 5679 5678 5678 5677 5677 5676 5676 5675 5674 5674 5674 5673 5673 5673 5672
5685 5684 5682 5680 5679 5677 5676 5675 5674 5673 5671 5670 5671 5671 5672 5672 5671 5671 5672 5672 5673 5674 5675 5675 5675 5674 5674 5674 5674 5673 5672 5672 5671 5671 5670 5670 5670 5669
5681 5680 5679 5676 5674 5673 5672 5671 5669 5667 5665 5664 5665 5665 5665 5665 5663 5663 5665 5666 5667 5669 5669 5670 5670 5670 5670 5670 5670 5669 5669 5668 5668 5667 5667 5666 5666 5666
5676 5674 5673 5671 5670 5668 5666 5665 5662 5660 5659 5657 5658 5658 5659 5656 5656 5657 5658 5660 5662 5662 5663 5664 5664 5664 5664 5664 5664 5664 5664 5664 5664 5663 5663 5663 5662 5662
5669 5667 5666 5664 5662 5661 5659 5658 5656 5654 5652 5650 5651 5651 5652 5651 5650 5649 5649 5649 5653 5657 5654 5656 5656 5657 5658 5657 5658 5658 5658 5658 5659 5659 5659 5659 5658 5658
5659 5657 5656 5654 5652 5651 5649 5648 5646 5644 5643 5641 5641 5642 5642 5643 5640 5640 5639 5639 5643 5646 5643 5648 5649 5650 5651 5651 5651 5652 5652 5652 5652 5653 5653 5653 5653 5653
5646 5645 5642 5640 5638 5637 5637 5636 5634 5632 5631 5630 5630 5630 5630 5629 5628 5628 5628 5630 5634 5635 5632 5636 5642 5643 5645 5644 5644 5644 5644 5645 5645 5646 5646 5647 5647 5648
5632 5630 5629 5626 5624 5623 5623 5621 5621 5619 5619 5618 5617 5617 5617 5616 5615 5614 5616 5616 5621 5626 5624 5623 5630 5632 5636 5638 5638 5636 5636 5636 5637 5637 5638 5639 5639 5639
5618 5616 5614 5612 5610 5609 5608 5607 5606 5606 5605 5606 5605 5605 5604 5604 5602 5601 5601 5602 5606 5610 5613 5610 5614 5614 5622 5629 5628 5626 5625 5626 5626 5627 5629 5630 5630 5628
5604 5602 5600 5597 5596 5595 5594 5592 5591 5591 5591 5591 5591 5591 5591 5590 5590 5588 5587 5587 5589 5593 5594 5592 5596 5597 5599 5610 5613 5612 5611 5613 5614 5616 5617 5619 5619 5618
5588 5586 5584 5583 5582 5581 5579 5578 5577 5577 5576 5577 5577 5577 5576 5576 5576 5574 5573 5572 5572 5574 5575 5573 5575 5578 5581 5588 5595 5598 5598 5598 5599 5601 5604 5606 5607 5608
5573 5572 5570 5568 5567 5566 5564 5563 5562 5561 5560 5560 5560 5560 5559 5559 5559 5558 5559 5558 5559 5559 5559 5558 5558 5561 5562 5568 5576 5580 5582 5585 5584 5586 5588 5591 5594 5596
5558 5556 5554 5552 5550 5549 5547 5546 5544 5543 5542 5541 5541 5541 5541 5540 5540 5540 5541 5542 5543 5547 5544 5542 5541 5542 5546 5551 5555 5561 5564 5567 5571 5570 5572 5576 5579 5582
5541 5539 5537 5535 5534 5532 5530 5528 5526 5525 5524 5523 5523 5523 5523 5524 5523 5523 5523 5524 5525 5529 5530 5529 5526 5526 5529 5533 5538 5544 5547 5550 5553 5554 5554 5560 5567 5570
5523 5521 5518 5516 5514 5513 5512 5510 5509 5507 5506 5506 5506 5506 5506 5506 5507 5507 5507 5507 5509 5512 5513 5513 5512 5512 5516 5523 5523 5527 5531 5535 5538 5539 5539 5544 5554 5559
5504 5501 5499 5497 5496 5494 5494 5493 5492 5491 5490 5490 5490 5490 5490 5491 5491 5492 5492 5493 5495 5497 5498 5497 5496 5496 5501 5512 5519 5512 5515 5520 5522 5525 5527 5531 5539 5547
5485 5482 5480 5479 5478 5477 5477 5476 5476 5475 5475 5475 5475 5475 5475 5476 5478 5479 5480 5480 5482 5484 5486 5487 5487 5487 5489 5496 5505 5507 5503 5506 5510 5514 5518 5522 5527 5532
5467 5465 5463 5462 5461 5461 5460 5460 5460 5461 5461 5461 5462 5463 5463 5464 5466 5468 5470 5471 5470 5474 5477 5481 5482 5480 5482 5485 5492 5502 5502 5500 5501 5504 5509 5512 5518 5523
5451 5450 5448 5447 5447 5447 5447 5447 5448 5449 5450 5451 5452 5453 5454 5454 5456 5458 5460 5462 5465 5467 5470 5474 5476 5476 5477 5480 5487 5494 5499 5500 5500 5501 5502 5505 5509 5519
5437 5436 5436 5436 5436 5436 5437 5437 5438 5439 5440 5441 5442 5443 5445 5446 5448 5450 5453 5455 5458 5461 5465 5469 5472 5474 5477 5479 5483 5488 5493 5497 5499 5501 5505 5507 5508 5512